FW1003 Weather Reports


Display with metric or nautical units.
time (UTC)temp
F
wind
direction
speed
MPH
gust
MPH
rain 1hr
in
rain 24hr
in
rain mn
in
humidity
%
barometer
mb
20260504050019 68 152 4.0 16.0 0.00 0.05 0.00 47 1016.3
20260504044514 68 169 8.0 15.0 0.00 0.05 0.00 47 1016.1
20260504043004 67 183 7.0 14.0 0.00 0.05 0.00 47 1016.0
20260504041501 66 360 6.0 21.0 0.00 0.05 0.00 47 1016.0
20260504040128 65 136 3.0 6.0 0.00 0.05 0.00 49 1016.0
20260504034556 65 165 5.0 9.0 0.00 0.05 0.00 48 1016.1
20260504033051 65 179 5.0 11.0 0.00 0.05 0.00 49 1016.2
20260504031556 65 171 4.0 9.0 0.00 0.05 0.00 49 1016.0
20260504030029 65 165 3.0 11.0 0.00 0.05 0.00 49 1016.0
20260504024529 64 151 4.0 12.0 0.00 0.05 0.00 48 1016.0
20260504023028 64 170 2.0 7.0 0.00 0.05 0.00 49 1016.0
20260504021527 64 154 4.0 9.0 0.00 0.05 0.00 50 1015.9
20260504020023 64 148 1.0 13.0 0.00 0.05 0.00 54 1015.8
20260504014527 64 169 3.0 11.0 0.00 0.05 0.00 57 1015.6
20260504013020 65 360 2.0 7.0 0.00 0.05 0.00 59 1015.7
20260504011520 65 360 1.0 7.0 0.00 0.05 0.00 53 1015.7
20260504010014 65 360 5.0 14.0 0.00 0.05 0.00 51 1015.7
20260504004518 65 360 4.0 12.0 0.00 0.05 0.00 51 1015.7
20260504003012 65 179 4.0 12.0 0.00 0.05 0.00 47 1015.9
20260504001511 65 360 3.0 9.0 0.00 0.05 0.00 49 1016.0
20260504000006 65 360 2.0 8.0 0.00 0.05 0.00 50 1016.0
20260503234505 65 166 3.0 10.0 0.00 0.05 0.00 51 1016.0
20260503233014 65 148 2.0 8.0 0.00 0.05 0.00 52 1015.9
20260503231503 65 172 2.0 6.0 0.00 0.05 0.00 55 1016.0
20260503230100 65 114 2.0 8.0 0.00 0.05 0.00 56 1016.2
20260503224559 65 126 0.0 8.0 0.00 0.05 0.00 56 1016.2
20260503223059 65 162 1.0 4.0 0.00 0.05 0.00 58 1016.2
20260503221600 65 165 3.0 12.0 0.00 0.05 0.00 55 1016.3
20260503220042 65 360 1.0 5.0 0.00 0.05 0.00 54 1016.5
20260503214541 65 159 2.0 9.0 0.00 0.05 0.00 52 1016.6
20260503213042 65 120 2.0 9.0 0.00 0.05 0.00 53 1016.6
20260503211538 65 96 1.0 5.0 0.00 0.05 0.00 54 1016.7
20260503210028 65 163 1.0 8.0 0.00 0.05 0.00 54 1016.7
20260503204525 65 133 0.0 8.0 0.01 0.05 0.05 57 1016.8
20260503203023 65 240 2.0 7.0 0.01 0.05 0.05 60 1016.7
20260503201523 64 132 1.0 8.0 0.01 0.05 0.05 65 1016.7
20260503200019 65 162 1.0 4.0 0.01 0.05 0.05 67 1016.7
20260503194519 66 360 2.0 6.0 0.00 0.04 0.04 64 1016.8
20260503193117 65 113 0.0 6.0 0.00 0.04 0.04 61 1016.4
20260503191517 65 167 0.0 6.0 0.00 0.04 0.04 61 1016.3
20260503190010 65 121 0.0 4.0 0.00 0.04 0.04 60 1016.4
20260503184515 66 360 0.0 4.0 0.00 0.04 0.04 59 1016.4
20260503183011 67 141 1.0 8.0 0.00 0.04 0.04 60 1016.2
20260503181507 67 360 2.0 8.0 0.00 0.04 0.04 60 1015.9
20260503180002 67 93 2.0 4.0 0.00 0.04 0.04 60 1015.5
20260503174602 67 85 2.0 7.0 0.00 0.04 0.04 62 1015.3
20260503173110 67 263 1.0 8.0 0.00 0.04 0.04 63 1015.1
20260503171558 67 22 0.0 6.0 0.00 0.04 0.04 64 1015.0
20260503090105 77 155 3.0 13.0 0.00 0.00 0.00 60 1009.7
20260503081554 79 161 7.0 15.0 0.00 0.00 0.00 59 1008.9
20260503071603 78 171 4.0 8.0 0.00 0.00 0.00 59 1008.2
20260503070143 78 360 3.0 13.0 0.00 0.00 0.00 60 1008.0
20260503054535 78 225 1.0 3.0 0.00 0.00 0.00 56 1007.2